Location: Godiavel Galaoual
(15.2485°N, 12.6604°W)
Time: 07:39:28
(UTC+00:00)

METEOR M2 - Pass Details

Date: 04 August 2021
Orbit: 818 x 827 km, 98.5° (Epoch: 27 September)

Event Time Altitude Azimuth Distance (km) Brightness Sun altitude
Rises 19:37:15 0° 158° (SSE) 3,354 ? -4.9°
Reaches altitude 10° 19:39:37 10° 154° (SSE) 2,422 ? -5.4°
Maximum altitude 19:44:53 58° 76° (ENE) 957 ? -6.6°
Drops below altitude 10° 19:50:09 10° 358° (N) 2,423 ? -7.8°
Sets 19:52:31 0° 355° (N) 3,355 ? -8.4°
